User: anonymous   Login
Location: Unspecified
(0.0000°N, 0.0000°E)
Time: 22:11:46
(UTC+00:00)
Language:

ZHANGZHENG-1 - Orbit

View from above orbital plane
View from above orbital plane
View from above satellite
View from above satellite

Ground track
Ground track

The orbit data is extracted from the following two-line orbital elements,

1 43194U 18015C   19291.10024398  .00000778  00000-0  38020-4 0  9994
2 43194  97.4094  54.7494 0014351 242.9384 232.2917 15.21108165 94677
Epoch (UTC): 18 October 2019 02:24:21
Eccentricity: 0.0014351
inclination: 97.4094°
perigee height: 492 km
apogee height: 512 km
right ascension of ascending node: 54.7494°
argument of perigee: 242.9384°
revolutions per day: 15.21108165
mean anomaly at epoch: 232.2917°
orbit number at epoch: 9467

The dashed part of the orbit path shows where the satellite is in the earth's shadow,  

DLR